EW7837 Weather Reports


time (UTC)temp
C
wind
direction
speed
KPH
gust
KPH
rain 1hr
cm
rain 24hr
cm
rain mn
cm
humidity
%
barometer
mb
20260902060022 19 246 0.0 0.0 0.00 0.00 0.00 85 1012.1
20260902054525 19 246 0.0 0.0 0.00 0.00 0.00 84 1012.3
20260902053018 20 246 0.0 0.0 0.00 0.00 0.00 83 1012.5
20260902051513 20 246 0.0 0.0 0.00 0.00 0.00 82 1012.2
20260902050033 20 246 0.0 0.0 0.00 0.00 0.00 81 1012.0
20260902044508 20 246 0.0 0.0 0.00 0.00 0.00 80 1011.8
20260902043015 21 246 0.0 0.0 0.00 0.00 0.00 79 1011.6
20260902041600 21 246 0.0 0.0 0.00 0.00 0.00 79 1011.5
20260902040058 21 246 0.0 0.0 0.00 0.00 0.00 79 1011.1
20260902034600 22 246 0.0 0.0 0.00 0.00 0.00 79 1010.9
20260902033054 22 246 0.0 0.0 0.00 0.00 0.00 78 1010.6
20260902031550 22 246 0.0 0.0 0.00 0.00 0.00 77 1010.5
20260902030047 22 246 0.0 0.0 0.00 0.00 0.00 77 1010.5
20260902024555 22 246 0.0 0.0 0.00 0.00 0.00 76 1010.4
20260902023047 23 246 0.0 0.0 0.00 0.00 0.00 75 1010.3
20260902021555 23 246 0.0 0.0 0.00 0.00 0.00 72 1010.2
20260902020047 24 246 0.0 0.0 0.00 0.00 0.00 71 1010.2
20260902014544 25 246 0.0 0.0 0.00 0.00 0.00 69 1010.2
20260902013044 26 246 0.0 0.0 0.00 0.00 0.00 67 1010.1
20260902011541 26 246 0.0 0.0 0.00 0.00 0.00 67 1010.2
20260902010040 26 247 0.0 0.0 0.00 0.00 0.00 67 1010.2
20260902004539 26 252 0.0 0.0 0.00 0.00 0.00 67 1010.3
20260902003040 26 257 0.0 0.0 0.00 0.00 0.00 66 1010.3
20260902001537 27 256 0.0 0.0 0.00 0.00 0.00 66 1010.4
20260902000038 27 255 0.0 0.0 0.00 0.00 0.00 66 1010.5
20260901234535 27 254 0.0 0.0 0.00 0.00 0.00 65 1010.5
20260901233035 26 236 0.0 0.0 0.00 0.00 0.00 65 1010.5
20260901231533 27 259 0.0 0.0 0.00 0.00 0.00 63 1010.6
20260901230042 28 269 0.0 0.0 0.00 0.00 0.00 62 1010.6
20260901224536 27 280 0.0 0.0 0.00 0.00 0.00 62 1010.6
20260901223033 27 254 1.6 0.0 0.00 0.00 0.00 64 1010.6
20260901221529 28 270 0.0 0.0 0.00 0.00 0.00 64 1010.7
20260901220038 28 274 0.0 0.0 0.00 0.00 0.00 64 1010.8
20260901214529 28 291 0.0 0.0 0.00 0.00 0.00 63 1010.9
20260901213041 27 269 0.0 0.0 0.00 0.00 0.00 68 1011.0
20260901211527 27 269 0.0 0.0 0.00 0.00 0.00 66 1011.0
20260901210027 27 271 1.6 0.0 0.00 0.00 0.00 66 1011.1
20260901204532 28 254 0.0 0.0 0.00 0.00 0.00 66 1011.1
20260901203032 28 259 0.0 0.0 0.00 0.00 0.00 67 1011.1
20260901201520 27 261 0.0 0.0 0.00 0.00 0.00 67 1011.2
20260901200017 27 269 0.0 0.0 0.00 0.00 0.00 67 1011.2
20260901194515 27 259 0.0 0.0 0.00 0.00 0.00 70 1011.4
20260901193015 27 274 0.0 0.0 0.00 0.00 0.00 70 1011.6
20260901191513 27 255 0.0 0.0 0.00 0.00 0.00 69 1011.7
20260901190008 27 269 0.0 0.0 0.00 0.00 0.00 69 1012.1
20260901184513 27 259 0.0 0.0 0.00 0.00 0.00 69 1012.1
20260901183002 27 259 0.0 0.0 0.00 0.00 0.00 71 1012.1
20260901181602 27 259 0.0 0.0 0.00 0.00 0.00 70 1011.9
20260901180054 26 259 0.0 0.0 0.00 0.00 0.00 70 1012.1
20260901174556 27 259 0.0 0.0 0.00 0.00 0.00 70 1012.1
20260901173047 26 259 0.0 0.0 0.00 0.00 0.00 69 1012.4
20260901171542 26 259 0.0 0.0 0.00 0.00 0.00 71 1012.2
20260901170033 25 259 0.0 0.0 0.00 0.00 0.00 73 1012.2
20260901164537 25 259 0.0 0.0 0.00 0.00 0.00 75 1011.8
20260901163027 24 259 0.0 0.0 0.00 0.00 0.00 77 1011.7
20260901161528 23 259 0.0 0.0 0.00 0.00 0.00 80 1011.9
20260901160034 23 259 0.0 0.0 0.00 0.00 0.00 82 1011.9
20260901154516 21 259 0.0 0.0 0.00 0.00 0.00 87 1011.8
20260901153014 21 259 0.0 0.0 0.00 0.00 0.00 88 1011.4
20260901151512 21 259 0.0 0.0 0.00 0.00 0.00 89 1011.5
20260901150039 20 259 0.0 0.0 0.00 0.00 0.00 90 1011.6
20260901144538 19 259 0.0 0.0 0.00 0.00 0.00 92 1011.6
20260901143039 18 259 0.0 0.0 0.00 0.00 0.00 92 1011.5
20260901141540 18 259 0.0 0.0 0.00 0.00 0.00 91 1011.1
20260901140038 18 259 0.0 0.0 0.00 0.00 0.00 91 1011.0
20260901134533 18 259 0.0 0.0 0.00 0.00 0.00 90 1011.1
20260901133025 18 259 0.0 0.0 0.00 0.00 0.00 90 1011.1
20260901131526 18 259 0.0 0.0 0.00 0.00 0.00 90 1011.0
20260901130028 18 259 0.0 0.0 0.00 0.00 0.00 90 1010.6
20260901124532 18 259 0.0 0.0 0.00 0.00 0.00 90 1010.6
20260901123036 18 259 0.0 0.0 0.00 0.00 0.00 90 1011.0
20260901121518 18 259 0.0 0.0 0.00 0.00 0.00 91 1011.0
20260901120027 18 259 0.0 0.0 0.00 0.00 0.00 90 1011.0
20260901114517 18 259 0.0 0.0 0.00 0.00 0.00 90 1010.6
20260901113014 18 259 0.0 0.0 0.00 0.00 0.00 90 1010.5
20260901111516 18 259 0.0 0.0 0.00 0.00 0.00 89 1010.4
20260901110013 17 259 0.0 0.0 0.00 0.00 0.00 89 1010.6
20260901104514 18 259 0.0 0.0 0.00 0.00 0.00 89 1010.8
20260901103010 18 259 0.0 0.0 0.00 0.00 0.00 89 1011.1
20260901101508 18 259 0.0 0.0 0.00 0.00 0.00 88 1010.6
20260901100005 18 259 0.0 0.0 0.00 0.00 0.00 89 1010.7
20260901094510 18 259 0.0 0.0 0.00 0.00 0.00 88 1010.6
20260901093002 18 259 0.0 0.0 0.00 0.00 0.00 89 1010.6
20260901091502 18 259 0.0 0.0 0.00 0.00 0.00 89 1011.0
20260901090101 18 259 0.0 0.0 0.00 0.00 0.00 88 1011.0
20260901084557 18 259 0.0 0.0 0.00 0.00 0.00 88 1011.0
20260901083056 18 259 0.0 0.0 0.00 0.00 0.00 88 1010.6
20260901081552 18 259 0.0 0.0 0.00 0.00 0.00 87 1010.7
20260901080051 19 259 0.0 0.0 0.00 0.00 0.00 87 1010.7
20260901074549 19 259 0.0 0.0 0.00 0.00 0.00 87 1010.6
20260901073049 19 259 0.0 0.0 0.00 0.00 0.00 86 1010.7
20260901071545 19 259 0.0 0.0 0.00 0.00 0.00 87 1010.9
20260901070046 20 259 0.0 0.0 0.00 0.00 0.00 87 1010.8
20260901064542 20 259 0.0 0.0 0.00 0.00 0.00 86 1010.6
20260901063052 20 259 0.0 0.0 0.00 0.00 0.00 86 1010.6
20260901061545 20 259 0.0 0.0 0.00 0.00 0.00 86 1010.7